This demonstration page uses our WeatherBlox Daily Observations layout. Learn more.

Left ArrowRight Arrow

Hourly Observations for September 5, 2021

Temp ( °F °C ) Dew Point ( °F °C ) Humidity (%) Winds ( mph kmh ) Pressure ( in mb ) Visibility ( mi km ) Precip ( " mm )
12:53 am 00:53 Mostly Clear 65 18.3 60 15.6 84 84 S 6 9 30.01 1016 10 16 0.00 0.00
1:53 am 01:53 Clear 63 17.2 59 15 87 87 S 5 7 30.02 1017 10 16 0.00 0.00
2:53 am 02:53 Mostly Clear 63 17.2 59 15 87 87 SW 6 9 30.01 1016 10 16 0.00 0.00
3:53 am 03:53 Clear 62 16.7 58 14.4 86 86 SSW 5 7 30.00 1016 10 16 0.00 0.00
4:53 am 04:53 Cloudy 62 16.7 59 15 90 90 NNE 21 33 30.05 1018 10 16 0.00 0.00
5:33 am 05:33 Mostly Cloudy with Nearby Thunderstorms 63 17 61 16 94 94 E 3 6 30.05 1017 10 16 0.00 0.00
5:53 am 05:53 Cloudy with Light Rain 64 17.8 61 16.1 90 90 SSW 3 6 30.06 1018 10 16 0.01 0.25
6:53 am 06:53 Mostly Cloudy with Light Rain 63 17.2 61 16.1 93 93 E 7 11 30.04 1017 10 16 0.09 2.29
7:02 am 07:02 Mostly Cloudy with Nearby Thunderstorms 63 17.2 61 16.1 93 93 NE 6 9 30.06 1018 10 16 0.00 0.00
7:53 am 07:53 Mostly Cloudy 64 17.8 60 15.6 87 87 S 5 7 30.02 1017 10 16 0.12 3.05
8:53 am 08:53 Mostly Cloudy 65 18.3 62 16.7 90 90 SW 6 9 30.05 1018 10 16 0.00 0.00
9:53 am 09:53 Sunny 67 19.4 62 16.7 84 84 SSW 9 15 30.06 1018 10 16 0.00 0.00
10:53 am 10:53 Sunny 71 21.7 62 16.7 73 73 SSE 9 15 30.04 1017 10 16 0.00 0.00
11:53 am 11:53 Mostly Sunny 76 24.4 58 14.4 54 54 S 10 17 30.02 1017 10 16 0.00 0.00
12:53 pm 12:53 Sunny 77 25 60 15.6 56 56 SW 13 20 30.02 1017 10 16 0.00 0.00
1:53 pm 13:53 Sunny 77 25 60 15.6 56 56 SSW 12 19 30.01 1016 10 16 0.00 0.00
2:53 pm 14:53 Sunny 80 26.7 58 14.4 47 47 SSW 13 20 29.98 1015 10 16 0.00 0.00
3:53 pm 15:53 Sunny 82 27.8 60 15.6 47 47 SW 13 20 29.97 1015 10 16 0.00 0.00
4:53 pm 16:53 Sunny 83 28.3 63 17.2 51 51 SW 9 15 29.96 1015 10 16 0.00 0.00
5:53 pm 17:53 Sunny 83 28.3 65 18.3 55 55 WSW 7 11 29.95 1014 10 16 0.00 0.00
6:53 pm 18:53 Sunny 81 27.2 66 18.9 61 61 WSW 7 11 29.95 1014 10 16 0.00 0.00
7:53 pm 19:53 Sunny 78 25.6 65 18.3 64 64 Calm 29.94 1014 10 16 0.00 0.00
8:53 pm 20:53 Clear 75 23.9 65 18.3 71 71 S 3 6 29.96 1015 10 16 0.00 0.00
9:53 pm 21:53 Clear 73 22.8 64 17.8 74 74 Calm 29.98 1015 10 16 0.00 0.00
10:53 pm 22:53 Clear 71 21.7 62 16.7 73 73 SSW 6 9 29.99 1016 10 16 0.00 0.00
11:53 pm 23:53 Clear 71 21.7 61 16.1 71 71 SSW 8 13 29.98 1015 10 16 0.00 0.00

Powered by AerisWeather